This is the latest recevied weather packets stored in our database for station/object HS5XHC-1. If no packets are shown the sender has not sent any weather packets the latest 10 day(s).
| Time | Temp. | Humidity | Pressure | Rain* | Wind** | Luminosity | Snow |
|---|---|---|---|---|---|---|---|
| 1778009002 | 27.78° C | 53% | 967 hPa | - | - | 0 W/m² | - |
| 1778008379 | 28.33° C | 53% | 967 hPa | - | - | 0 W/m² | - |
| 1778007755 | 28.33° C | 54% | 967 hPa | - | - | 0 W/m² | - |
| 1778007131 | 27.78° C | 54% | 968 hPa | - | - | 0 W/m² | - |
| 1778006507 | 28.33° C | 54% | 968 hPa | - | - | 0 W/m² | - |
| 1778005882 | 28.33° C | 54% | 968 hPa | - | - | 0 W/m² | - |
| 1778005259 | 29.44° C | 57% | 967 hPa | - | - | 0 W/m² | - |
| 1778004634 | 30° C | 54% | 966 hPa | - | - | 0 W/m² | - |
| 1778004010 | 30° C | 55% | 967 hPa | - | - | 0 W/m² | - |
| 1778003386 | 31.11° C | 53% | 967 hPa | - | - | 0 W/m² | - |
| 1778002763 | 31.11° C | 53% | 967 hPa | - | - | 0 W/m² | - |
| 1778002139 | 30.56° C | 53% | 967 hPa | - | - | 0 W/m² | - |
| 1778001515 | 30.56° C | 53% | 967 hPa | - | - | 0 W/m² | - |
| 1778000891 | 30.56° C | 53% | 968 hPa | - | - | 0 W/m² | - |
| 1778000241 | 30.56° C | 52% | 968 hPa | - | - | 0 W/m² | - |
| 1777999617 | 30.56° C | 53% | 968 hPa | - | - | 0 W/m² | - |
| 1777998993 | 31.11° C | 51% | 967 hPa | - | - | 0 W/m² | - |
| 1777998369 | 31.11° C | 50% | 967 hPa | - | - | 0 W/m² | - |
| 1777997746 | 31.11° C | 50% | 968 hPa | - | - | 0 W/m² | - |
| 1777997121 | 31.11° C | 50% | 968 hPa | - | - | 0 W/m² | - |
| 1777996498 | 31.11° C | 49% | 968 hPa | - | - | 0 W/m² | - |
| 1777995874 | 31.11° C | 49% | 968 hPa | - | - | 0 W/m² | - |
| 1777995250 | 31.11° C | 50% | 968 hPa | - | - | 0 W/m² | - |
| 1777994626 | 31.11° C | 49% | 968 hPa | - | - | 0 W/m² | - |
| 1777994002 | 31.11° C | 49% | 968 hPa | - | - | 0 W/m² | - |
* Rain since midnight (hover to see other rain measurements)
** Current wind speed in m/s (hover to see current wind gust speed)